Airfield :
LOGIN :

Register | Disclaimer

   EN    FR    IT 

 










Legend :    VFR   Marginal VFR   IFR   Intensive IFR   Very Intensive IFR
Visi :
Ceiling :
>= 8 km
>= 3000ft
5 to 8 km
1000 to 3000 ft
1500m to 5 km
500 to 1000 ft
800 to 1500m
200 to 500 ft
< 800m
< 200 ft
Symbols :   Thunderstorms  Fog  Heavy snow  Heavy precipitations  Wind > 20 kt
SIGMETs :     Misc.  Thunderstorms  Icing  Turbulence  Mountain Waves  Volcanic Ashes







- Airport Elevation : 330 ft
- IATA code : LVA
- Download approach charts


LFOV - Laval-Entrammes

CURRENT METAR :
  • 201130Z AUTO 05008KT 010V080 CAVOK 20/08 Q1019

EXPIRED METARs :
  • 201100Z AUTO 05010KT 9999 FEW038 19/09 Q1019
  • 201030Z AUTO 05009KT 360V080 CAVOK 18/10 Q1020
  • 201000Z AUTO 05008KT 340V090 CAVOK 18/10 Q1020
  • 200930Z AUTO 04007KT 360V070 CAVOK 17/10 Q1020
  • 200900Z AUTO 02008KT 340V060 CAVOK 16/10 Q1020

TAF N/A
No reported NOTAMs for that airfield.



MET'MAP, your aeronautical weather chart ! - Copyright ORBIFLY December 2007 - Disclaimer

ORBIFLY MET'MAP TEAM :

Programming & Development : Alexandra Zaïnal
Concept & Development : Baudouin d'Aumeries
Co-Development & Prog : Marc-Olivier Méhu
Technical & hardware support : Manuel Goepfert

Contact : metmap@orbifly.com




SOURCES & CREDITS :

   NOAA